Location: Gellin
(53.4498°N, 14.3207°E)
Time: 01:15:26
(UTC+00:00)

SPOT 1/Viking Rocket - Pass Details

Date: 03 March 2021
Orbit: 778 x 793 km, 98.4° (Epoch: 11 April)

Event Time Altitude Azimuth Distance (km) Brightness Sun altitude
Exits shadow 20:29:55 47° 302° (WNW) 1,033 4.4 -32.4°
Drops below altitude 10° 20:33:58 10° 338° (NNW) 2,354 6.7 -32.9°
Sets 20:36:21 0° 343° (NNW) 3,289 7.5 -33.2°
